Location: Newark
(45.4422°N, 16.2769°E)
Time: 22:40:04
(UTC+00:00)

Vanguard 2 - Pass Details

Date: 12 December 2019
Orbit: 553 x 2938 km, 32.9° (Epoch: 17 January)

Event Time Altitude Azimuth Distance (km) Brightness Sun altitude
Rises 04:18:16 0° 271° (W) 6,637 - -21.3°
Reaches altitude 10° 04:22:52 10° 265° (W) 5,728 - -20.5°
Exits shadow 04:26:41 19° 259° (WSW) 5,019 11.1 -19.9°
Maximum altitude 04:38:55 43° 203° (SSW) 3,548 10.8 -17.8°
Drops below altitude 10° 04:52:18 10° 138° (SE) 4,813 12.5 -15.5°
Sets 04:55:48 0° 132° (SE) 5,531 13.2 -15.0°
